When you browse on this site, cookies collect data to enhance your experience and personalize the content and advertising you see.
Visit our Privacy Policy to learn more. By continuing to use the site, you agree to this use of cookies and data.
  • In Österreich
  • Länderverzeichnis
  • Für 7 Tage
  • Wassertemperatur
  • Wetterkarte
  • News
  • Widgets
  • user-avatar
    Anmelden

    Stündliche Wetter Dubovaya Roscha

    Heute, 19 November, Dienstag

    Zeit Temperatur Niederschläge Wind Luftdruck Luftfeuchtigkeit
    00:00 0°C° 0.1 mm 3 m/S 752 mmHg 96%
    01:00 0°C° 0.1 mm 3 m/S 751 mmHg 96%
    02:00 0°C° 0.4 mm 3 m/S 751 mmHg 96%
    03:00 0°C° 0.4 mm 3 m/S 751 mmHg 96%
    04:00 0°C° 0 mm 3 m/S 751 mmHg 95%
    05:00 0°C° 0.1 mm 3 m/S 751 mmHg 95%
    06:00 0°C° 0.1 mm 3 m/S 751 mmHg 96%
    07:00 +2°C° 0.1 mm 2 m/S 751 mmHg 96%
    08:00 +1°C° 0 mm 3 m/S 751 mmHg 95%
    09:00 0°C° 0 mm 4 m/S 751 mmHg 94%
    10:00 0°C° 0 mm 5 m/S 752 mmHg 92%
    11:00 0°C° 0 mm 5 m/S 752 mmHg 87%
    12:00 -1°C° 0 mm 5 m/S 752 mmHg 82%
    13:00 -1°C° 0 mm 5 m/S 752 mmHg 77%
    14:00 -2°C° 0.1 mm 5 m/S 753 mmHg 78%
    15:00 -5°C° 0.1 mm 6 m/S 753 mmHg 79%
    16:00 -6°C° 0 mm 6 m/S 754 mmHg 83%
    17:00 -8°C° 0 mm 6 m/S 754 mmHg 81%
    18:00 -9°C° 0 mm 6 m/S 755 mmHg 79%
    19:00 -10°C° 0 mm 6 m/S 755 mmHg 77%
    20:00 -11°C° 0 mm 6 m/S 756 mmHg 75%
    21:00 -12°C° 0 mm 6 m/S 756 mmHg 73%
    22:00 -14°C° 0 mm 6 m/S 757 mmHg 71%
    23:00 -14°C° 0 mm 6 m/S 757 mmHg 69%

    Morgen, 20 November, Mittwoch

    Zeit Temperatur Niederschläge Wind Luftdruck Luftfeuchtigkeit
    00:00 -15°C° 0 mm 6 m/S 758 mmHg 68%
    01:00 -14°C° 0 mm 5 m/S 758 mmHg 66%
    02:00 -15°C° 0 mm 5 m/S 759 mmHg 64%
    03:00 -15°C° 0 mm 5 m/S 759 mmHg 62%
    04:00 -15°C° 0 mm 5 m/S 760 mmHg 60%
    05:00 -17°C° 0 mm 5 m/S 760 mmHg 58%
    06:00 -17°C° 0 mm 5 m/S 760 mmHg 56%
    07:00 -18°C° 0 mm 6 m/S 760 mmHg 54%
    08:00 -18°C° 0 mm 6 m/S 761 mmHg 53%
    09:00 -18°C° 0 mm 6 m/S 762 mmHg 51%
    10:00 -18°C° 0 mm 6 m/S 763 mmHg 50%
    11:00 -17°C° 0 mm 5 m/S 763 mmHg 47%
    12:00 -15°C° 0 mm 5 m/S 763 mmHg 44%
    13:00 -15°C° 0 mm 5 m/S 763 mmHg 41%
    14:00 -15°C° 0 mm 5 m/S 764 mmHg 43%
    15:00 -15°C° 0 mm 5 m/S 764 mmHg 45%
    16:00 -15°C° 0 mm 4 m/S 764 mmHg 46%
    17:00 -15°C° 0 mm 4 m/S 765 mmHg 49%
    18:00 -15°C° 0 mm 4 m/S 765 mmHg 52%
    19:00 -15°C° 0 mm 4 m/S 765 mmHg 54%
    20:00 -15°C° 0 mm 4 m/S 766 mmHg 56%
    21:00 -14°C° 0 mm 3 m/S 766 mmHg 59%
    22:00 -14°C° 0 mm 3 m/S 766 mmHg 61%
    23:00 -13°C° 0 mm 2 m/S 766 mmHg 63%

    übermorgen, 21 November, Donnerstag

    Zeit Temperatur Niederschläge Wind Luftdruck Luftfeuchtigkeit
    00:00 -14°C° 0 mm 2 m/S 767 mmHg 66%
    01:00 -14°C° 0 mm 2 m/S 767 mmHg 68%
    02:00 -14°C° 0 mm 2 m/S 767 mmHg 69%
    03:00 -12°C° 0 mm 1 m/S 767 mmHg 70%
    04:00 -12°C° 0 mm 1 m/S 767 mmHg 72%
    05:00 -12°C° 0 mm 1 m/S 767 mmHg 72%
    06:00 -12°C° 0 mm 1 m/S 767 mmHg 73%
    07:00 -12°C° 0 mm 1 m/S 767 mmHg 73%
    08:00 -11°C° 0 mm 1 m/S 767 mmHg 70%
    09:00 -13°C° 0 mm 2 m/S 768 mmHg 66%
    10:00 -12°C° 0 mm 2 m/S 768 mmHg 63%
    11:00 -10°C° 0 mm 2 m/S 768 mmHg 58%
    12:00 -9°C° 0 mm 2 m/S 767 mmHg 53%
    13:00 -8°C° 0 mm 2 m/S 767 mmHg 49%
    14:00 -9°C° 0 mm 2 m/S 767 mmHg 50%
    15:00 -9°C° 0 mm 2 m/S 767 mmHg 50%
    16:00 -9°C° 0 mm 2 m/S 767 mmHg 51%
    17:00 -9°C° 0 mm 2 m/S 766 mmHg 55%
    18:00 -10°C° 0 mm 2 m/S 766 mmHg 58%
    19:00 -10°C° 0 mm 2 m/S 766 mmHg 61%
    20:00 -10°C° 0 mm 2 m/S 766 mmHg 62%
    21:00 -10°C° 0 mm 2 m/S 766 mmHg 62%
    22:00 -12°C° 0 mm 2 m/S 766 mmHg 63%
    23:00 -12°C° 0 mm 2 m/S 766 mmHg 63%

    22 November, Freitag

    Zeit Temperatur Niederschläge Wind Luftdruck Luftfeuchtigkeit
    00:00 -12°C° 0 mm 2 m/S 765 mmHg 63%
    01:00 -12°C° 0 mm 2 m/S 765 mmHg 63%
    02:00 -12°C° 0 mm 2 m/S 765 mmHg 62%
    03:00 -12°C° 0 mm 2 m/S 765 mmHg 62%
    04:00 -12°C° 0 mm 2 m/S 765 mmHg 61%
    05:00 -12°C° 0 mm 2 m/S 764 mmHg 61%
    06:00 -13°C° 0 mm 3 m/S 764 mmHg 61%
    07:00 -13°C° 0 mm 3 m/S 764 mmHg 61%
    08:00 -13°C° 0 mm 3 m/S 764 mmHg 58%
    09:00 -12°C° 0 mm 3 m/S 764 mmHg 55%
    10:00 -10°C° 0 mm 3 m/S 764 mmHg 52%
    11:00 -9°C° 0 mm 3 m/S 763 mmHg 50%
    12:00 -8°C° 0 mm 3 m/S 763 mmHg 48%
    13:00 -7°C° 0 mm 3 m/S 763 mmHg 46%
    14:00 -7°C° 0 mm 3 m/S 763 mmHg 47%
    15:00 -8°C° 0 mm 3 m/S 762 mmHg 49%
    16:00 -8°C° 0 mm 3 m/S 762 mmHg 51%
    17:00 -8°C° 0 mm 3 m/S 762 mmHg 53%
    18:00 -9°C° 0 mm 3 m/S 762 mmHg 56%
    19:00 -9°C° 0 mm 3 m/S 761 mmHg 58%
    20:00 -9°C° 0 mm 3 m/S 761 mmHg 59%
    21:00 -8°C° 0 mm 2 m/S 761 mmHg 60%
    22:00 -8°C° 0 mm 2 m/S 761 mmHg 61%
    23:00 -8°C° 0 mm 2 m/S 761 mmHg 62%

    23 November, Samstag

    Zeit Temperatur Niederschläge Wind Luftdruck Luftfeuchtigkeit
    00:00 -9°C° 0 mm 2 m/S 761 mmHg 63%
    01:00 -9°C° 0 mm 2 m/S 761 mmHg 64%
    02:00 -9°C° 0 mm 2 m/S 761 mmHg 65%
    03:00 -9°C° 0 mm 2 m/S 760 mmHg 66%
    04:00 -9°C° 0 mm 2 m/S 760 mmHg 67%
    05:00 -9°C° 0 mm 2 m/S 760 mmHg 68%
    06:00 -9°C° 0 mm 2 m/S 760 mmHg 70%
    07:00 -9°C° 0 mm 2 m/S 760 mmHg 71%
    08:00 -8°C° 0 mm 2 m/S 760 mmHg 68%
    09:00 -8°C° 0 mm 2 m/S 760 mmHg 66%
    10:00 -7°C° 0 mm 2 m/S 759 mmHg 63%
    11:00 -6°C° 0 mm 2 m/S 759 mmHg 58%
    12:00 -5°C° 0 mm 2 m/S 759 mmHg 54%
    13:00 -4°C° 0 mm 2 m/S 759 mmHg 50%
    14:00 -5°C° 0 mm 2 m/S 758 mmHg 52%
    15:00 -6°C° 0 mm 3 m/S 758 mmHg 55%
    16:00 -7°C° 0 mm 3 m/S 758 mmHg 57%
    17:00 -7°C° 0 mm 3 m/S 758 mmHg 59%
    18:00 -8°C° 0 mm 3 m/S 758 mmHg 60%
    19:00 -8°C° 0 mm 3 m/S 757 mmHg 62%
    20:00 -8°C° 0 mm 3 m/S 757 mmHg 63%
    21:00 -9°C° 0 mm 3 m/S 757 mmHg 65%
    22:00 -9°C° 0 mm 3 m/S 757 mmHg 66%
    23:00 -9°C° 0 mm 3 m/S 757 mmHg 68%

    24 November, Sonntag

    Zeit Temperatur Niederschläge Wind Luftdruck Luftfeuchtigkeit
    00:00 -8°C° 0 mm 2 m/S 757 mmHg 70%
    01:00 -8°C° 0 mm 2 m/S 757 mmHg 72%
    02:00 -8°C° 0 mm 2 m/S 757 mmHg 75%
    03:00 -8°C° 0 mm 2 m/S 757 mmHg 78%
    04:00 -8°C° 0 mm 2 m/S 757 mmHg 82%
    05:00 -8°C° 0 mm 2 m/S 757 mmHg 85%
    06:00 -8°C° 0 mm 2 m/S 757 mmHg 88%
    07:00 -8°C° 0 mm 2 m/S 757 mmHg 91%
    08:00 -8°C° 0 mm 2 m/S 757 mmHg 89%
    09:00 -7°C° 0 mm 2 m/S 757 mmHg 87%
    10:00 -6°C° 0 mm 2 m/S 757 mmHg 85%
    11:00 -5°C° 0 mm 2 m/S 757 mmHg 81%
    12:00 -5°C° 0 mm 2 m/S 757 mmHg 78%
    13:00 -4°C° 0 mm 2 m/S 757 mmHg 74%
    14:00 -4°C° 0 mm 2 m/S 757 mmHg 76%
    15:00 -5°C° 0 mm 2 m/S 757 mmHg 78%
    16:00 -5°C° 0 mm 2 m/S 756 mmHg 81%
    17:00 -6°C° 0 mm 2 m/S 756 mmHg 76%
    18:00 -7°C° 0 mm 2 m/S 756 mmHg 71%
    19:00 -7°C° 0 mm 2 m/S 756 mmHg 67%
    20:00 -8°C° 0 mm 2 m/S 756 mmHg 65%
    21:00 -8°C° 0 mm 2 m/S 756 mmHg 63%
    22:00 -8°C° 0 mm 2 m/S 756 mmHg 61%
    23:00 -8°C° 0 mm 2 m/S 756 mmHg 62%
    Mehr zeigen